Location: Chrome
(40.5765°N, 74.2163°W)
Time: 10:40:55
(UTC+00:00)

Exosat Rocket - Pass Details

Date: 06 December 2019
Orbit: 760 x 2515 km, 72.3° (Epoch: 24 January)

Event Time Altitude Azimuth Distance (km) Brightness Sun altitude
Rises 22:49:42 0° 205° (SSW) 3,719 7.7 -14.8°
Reaches altitude 10° 22:52:28 10° 207° (SSW) 2,602 6.9 -15.3°
Maximum altitude 22:58:07 73° 292° (WNW) 832 3.8 -16.3°
Drops below altitude 10° 23:03:05 10° 18° (NNE) 2,299 5.7 -17.2°
Enters shadow 23:03:09 10° 18° (NNE) 2,327 5.7 -17.2°
